Precipitable_Water
1.09 1.09 1.03 0.99 0.94 0.88 0.80 0.73 0.70 0.66 0.65 0.62 0.60 0.57 0.56 0.54 0.53 0.54 0.56 0.50 0.47 0.44
1.06 1.07 1.04 1.02 0.98 0.91 0.86 0.78 0.75 0.69 0.65 0.63 0.60 0.56 0.55 0.53 0.53 0.59 0.53 0.51 0.48 0.44
0.99 1.03 1.02 1.02 0.97 0.92 0.87 0.82 0.76 0.70 0.68 0.62 0.59 0.56 0.54 0.54 0.58 0.54 0.52 0.49 0.46 0.44
0.91 0.94 0.94 0.93 0.94 0.92 0.89 0.88 0.81 0.76 0.69 0.64 0.60 0.56 0.55 0.55 0.59 0.51 0.49 0.47 0.45 0.43
0.88 0.89 0.88 0.87 0.88 0.88 0.83 0.82 0.75 0.70 0.65 0.63 0.61 0.57 0.56 0.58 0.52 0.47 0.46 0.43 0.44 0.41
0.83 0.84 0.83 0.84 0.85 0.83 0.80 0.77 0.72 0.69 0.65 0.66 0.62 0.67 0.66 0.56 0.51 0.47 0.45 0.43 0.43 0.39
0.80 0.81 0.80 0.81 0.82 0.81 0.78 0.74 0.71 0.69 0.66 0.66 0.66 0.70 0.63 0.55 0.51 0.47 0.46 0.47 0.43 0.38
0.76 0.78 0.78 0.77 0.77 0.78 0.77 0.73 0.69 0.67 0.67 0.68 0.71 0.66 0.57 0.54 0.49 0.50 0.51 0.45 0.40 0.37
0.66 0.71 0.72 0.72 0.72 0.75 0.74 0.72 0.71 0.70 0.69 0.69 0.67 0.61 0.58 0.55 0.53 0.54 0.48 0.39 0.37 0.37
0.63 0.65 0.67 0.69 0.68 0.69 0.69 0.70 0.70 0.70 0.69 0.67 0.63 0.60 0.57 0.55 0.56 0.48 0.43 0.42 0.39 0.36
0.58 0.61 0.64 0.65 0.65 0.66 0.67 0.67 0.67 0.66 0.65 0.63 0.62 0.60 0.57 0.55 0.51 0.48 0.44 0.40 0.39 0.34
0.56 0.56 0.58 0.58 0.60 0.63 0.64 0.65 0.64 0.63 0.61 0.58 0.57 0.56 0.54 0.51 0.48 0.44 0.42 0.39 0.31 0.28
0.58 0.59 0.59 0.59 0.59 0.61 0.62 0.61 0.61 0.58 0.57 0.55 0.51 0.51 0.50 0.49 0.45 0.39 0.33 0.30 0.28 0.24
0.61 0.61 0.61 0.59 0.58 0.57 0.56 0.56 0.54 0.54 0.53 0.52 0.51 0.50 0.49 0.47 0.39 0.33 0.28 0.25 0.23 0.23
Wind_Speed
39 39 40 39 37 37 35 35 34 34 33 32 31 31 30 30 30 30 29 28 28 27
40 41 40 40 39 38 37 36 36 35 35 34 33 32 32 31 31 31 29 28 28 27
39 40 41 41 40 39 38 38 37 36 36 35 34 34 33 33 32 31 30 29 29 28
37 38 40 41 41 41 40 39 39 38 37 36 35 35 35 34 33 32 31 30 29 28
37 38 39 40 40 40 40 40 39 38 37 37 36 36 36 34 33 33 31 31 29 29
35 37 38 39 40 41 40 39 39 38 37 37 37 37 37 36 35 34 33 31 31 30
36 37 37 37 39 40 40 40 39 38 38 37 37 37 36 35 35 35 33 32 32 30
35 36 36 36 37 38 40 39 39 37 37 37 38 36 36 36 35 35 33 32 31 30
36 36 36 35 35 37 38 38 38 37 37 37 36 36 36 35 35 33 32 32 31 30
36 36 37 37 38 37 38 38 38 38 37 36 37 36 36 35 34 33 31 31 29 28
37 37 37 37 38 38 38 38 37 36 36 35 35 35 35 33 31 31 30 28 28 28
39 38 38 38 38 38 37 36 36 35 34 34 33 32 31 30 29 28 26 26 27 28
37 38 37 38 37 37 36 35 35 34 33 32 30 30 29 28 26 25 24 26 26 28
35 36 36 36 36 35 34 33 32 29 28 28 27 27 25 24 24 24 25 25 26 27
Wind_Direction
243 244 243 244 246 247 249 251 251 253 255 257 258 260 263 266 268 270 272 274 277 279
244 244 244 244 246 248 249 251 252 253 255 256 258 260 263 265 268 269 270 271 275 277
247 246 246 246 246 247 249 251 251 253 255 256 258 260 262 265 266 266 268 270 273 277
249 247 247 246 247 248 250 251 251 252 254 256 258 259 263 264 263 263 266 268 272 276
250 249 247 248 247 248 249 250 251 252 254 256 258 260 262 261 260 261 264 269 273 276
253 251 249 249 248 248 249 250 251 252 253 255 258 261 261 258 258 261 265 267 273 275
254 253 251 251 248 247 248 249 250 252 254 257 259 262 258 255 259 262 264 266 271 273
256 253 252 251 250 248 248 249 250 251 254 257 262 259 257 259 260 260 263 265 269 272
257 254 252 251 251 249 249 248 248 252 254 257 258 256 258 259 258 260 262 266 269 271
257 254 253 252 252 250 250 249 249 252 254 258 257 255 256 257 259 260 263 266 268 270
257 255 254 253 252 251 250 249 249 252 255 257 255 254 254 254 257 260 263 264 268 272
257 256 255 254 252 251 249 248 249 251 253 254 253 250 251 255 258 259 261 265 270 274
258 256 256 253 251 250 247 246 248 250 250 249 246 246 248 251 255 258 262 270 275 277
257 256 254 251 248 246 243 242 244 241 241 241 241 243 244 247 255 261 268 274 278 282